TimeCST,TemperatureF,Dew PointF,Humidity,Sea Level PressureIn,VisibilityMPH,Wind Direction,Wind SpeedMPH,Gust SpeedMPH,PrecipitationIn,Events,Conditions,WindDirDegrees,DateUTC
12:00 AM,66,58,67,29.86,12,SE,4.6,,,,,130,2013-12-02 06:00:00
12:00 AM,66.2,57.2,73,30.01,-9999.0,SE,4.6,-,N/A,,Clear,130,2013-12-02 06:00:00
1:00 AM,66.2,57.2,73,29.98,-9999.0,East,3.5,-,N/A,,Clear,100,2013-12-02 07:00:00
2:00 AM,66.2,57.2,73,29.97,-9999.0,East,8.1,-,N/A,,Clear,80,2013-12-02 08:00:00
3:00 AM,65,57,68,29.82,12,NE,8.1,,,,,50,2013-12-02 09:00:00
3:00 AM,66.2,57.2,73,29.96,-9999.0,NE,8.1,-,N/A,,Clear,50,2013-12-02 09:00:00
4:00 AM,64.4,55.4,73,29.96,-9999.0,NE,6.9,-,N/A,,Clear,50,2013-12-02 10:00:00
5:00 AM,64.4,55.4,73,29.98,-9999.0,NE,6.9,-,N/A,,Clear,50,2013-12-02 11:00:00
6:00 AM,64,56,67,29.88,12,ENE,8.1,,,,Clear,60,2013-12-02 12:00:00
6:00 AM,64.4,55.4,73,29.98,-9999.0,ENE,8.1,-,N/A,,Clear,60,2013-12-02 12:00:00
7:00 AM,69.8,57.2,64,30.01,-9999.0,East,5.8,-,N/A,,Clear,80,2013-12-02 13:00:00
8:00 AM,73.4,55.4,53,30.02,-9999.0,East,8.1,-,N/A,,Clear,100,2013-12-02 14:00:00
9:00 AM,78,52,29,29.84,12,SE,5.8,,,,Clear,140,2013-12-02 15:00:00
9:00 AM,77.0,51.8,41,30.03,-9999.0,SE,5.8,-,N/A,,Clear,140,2013-12-02 15:00:00
10:00 AM,80.6,50.0,34,30.02,-9999.0,SE,6.9,-,N/A,,Clear,140,2013-12-02 16:00:00
11:00 AM,80.6,60.8,51,30.01,-9999.0,West,10.4,-,N/A,,Clear,260,2013-12-02 17:00:00
12:00 PM,80,64,50,29.84,12,WSW,12.7,,,,Scattered Clouds,240,2013-12-02 18:00:00
12:00 PM,78.8,64.4,61,29.98,6.2,WSW,12.7,-,N/A,,Partly Cloudy,240,2013-12-02 18:00:00
1:00 PM,80.6,66.2,61,29.96,6.2,WSW,11.5,-,N/A,,Partly Cloudy,240,2013-12-02 19:00:00
2:00 PM,78.8,66.2,65,29.93,6.2,WSW,11.5,-,N/A,,Scattered Clouds,240,2013-12-02 20:00:00
3:00 PM,80,67,56,29.79,12,WSW,15.0,,,,Partly Cloudy,240,2013-12-02 21:00:00
3:00 PM,77.0,66.2,69,29.93,6.2,WSW,15.0,-,N/A,,Mostly Cloudy,240,2013-12-02 21:00:00
4:00 PM,71.6,66.2,83,29.95,6.2,SW,13.8,-,N/A,,Mostly Cloudy,230,2013-12-02 22:00:00
5:00 PM,69.8,66.2,88,29.96,6.2,WSW,9.2,-,N/A,,Mostly Cloudy,240,2013-12-02 23:00:00
6:00 PM,69,68,94,29.86,12,West,8.1,,,,Overcast,260,2013-12-03 00:00:00
6:00 PM,69.8,68.0,94,29.99,6.2,West,8.1,-,N/A,,Mostly Cloudy,260,2013-12-03 00:00:00
7:00 PM,69.8,68.0,94,30.01,6.2,Calm,Calm,-,N/A,,Light Drizzle,0,2013-12-03 01:00:00
8:00 PM,69.8,68.0,94,30.04,6.2,Calm,Calm,-,N/A,,Mostly Cloudy,0,2013-12-03 02:00:00
9:00 PM,70,66,83,29.92,12,Calm,Calm,,,,Partly Cloudy,,2013-12-03 03:00:00
9:00 PM,69.8,66.2,88,30.06,6.2,Calm,Calm,-,N/A,,Scattered Clouds,0,2013-12-03 03:00:00
10:00 PM,68.0,64.4,88,30.07,-9999.0,ENE,3.5,-,N/A,,Clear,70,2013-12-03 04:00:00
11:00 PM,66.2,62.6,88,30.06,-9999.0,East,3.5,-,N/A,,Clear,90,2013-12-03 05:00:00